Tracking 32936 objects as of 16-Jan-2026
HD Live streaming from Space Station
objects crossing your sky now

STARLINK-32883

Track STARLINK-32883 now!
10-day predictions
STARLINK-32883 is classified as:


NORAD ID: 62806
Int'l Code: 2025-018A
Perigee: 481.2 km
Apogee: 483.6 km
Inclination: 53.2 °
Period: 94.1 minutes
Semi major axis: 6853 km
RCS: Unknown
Launch date: January 24, 2025
Source: United States (US)
Launch site: AIR FORCE WESTERN TEST RANGE (AFWTR)
Your satellite tracking list
Your tracking list is empty




NASA's NSSDC Master Catalog

Two Line Element Set (TLE):
1 62806U 25018A   26016.20311706  .00007622  00000-0  26935-3 0  9998
2 62806  53.1603 193.3109 0001709  87.1803 272.9394 15.30181134 56051
Source of the keplerian elements: AFSPC